Location: Unspecified
(51.0950°N, 12.9690°E)
Time: 22:49:13
(UTC+00:00)

Landsat 5 - Pass Details

Date: 28 October 2021
Orbit: 528 x 652 km, 98.2° (Epoch: 01 December)

Event Time Altitude Azimuth Distance (km) Brightness Sun altitude
Rises 17:47:14 0° 12° (NNE) 2,946 6.9 -19.0°
Reaches altitude 10° 17:49:26 10° 10° (N) 2,046 6.1 -19.4°
Maximum altitude 17:53:53 67° 289° (WNW) 707 4.0 -20.1°
Drops below altitude 10° 17:58:21 10° 207° (SSW) 2,057 6.5 -20.8°
Sets 18:00:34 0° 204° (SSW) 2,963 7.3 -21.1°
